Content
SEND FEEDBACK

Daily
Averages
Monthly
Summary
United States of America

CHICAGO, ILLINOIS


Home > North America > United States > Illinois
Elevation: 674 feet     Latitude: 41 59N     Longitude: 087 54W

WEATHER
 
SELECT A DAY
Number of Records: 194,820;   Date Range: 7/8/95 - 7/23/14
 
SHARE

PRINT THIS DATA

[ ← Previous Day ]
WEATHER ALMANAC - AUGUST 14, 2013
[ Next Day → ]
[ °C ]   °F
Weather ElementAverageHighLow
Temperature63.2 °F72 °F (2:52 pm)54 °F (3:52 am)
Dewpoint50.3 °F52 °F (7:52 am)48 °F (10:52 am)
Humidity64.9 %86 % (3:52 am)46 % (2:52 pm)
Barometer30.20 in30.24 in (9:52 am)30.17 in (6:52 pm)
Wind Speed4.5 mph9.2 mph (8:52 am)
Weather ElementAverage
Visibility10 mi
Wind DirectionESE (108.3 °)

Weather ElementTotal
Precipitation---
Heating Degree Days2 (Base 65)
Growing Degree Days13 (Base 50)
Averaged from 23 records on August 14, 2013
WEATHER CONDITIONS BREAKOUT
WIND DIRECTION BREAKOUT
WEATHER BY HOUR - AUGUST 14, 2013
[ °C ]   °F
Local TimeTemperatureDewpointHumidityBarometerVisibilityWind DirectionWind SpeedGust SpeedPrecipitationEventsConditions
1:52 AM55.9 °F51.1 °F84 %30.18 in10.0 miCalmPartly Cloudy
2:52 AM55.9 °F51.1 °F84 %30.18 in10.0 miCalmClear
3:52 AM54.0 °F50.0 °F86 %30.19 in10.0 miNNW (330°)3.5 mphClear
4:52 AM55.9 °F51.1 °F84 %30.19 in10.0 miNNW (330°)3.5 mphOvercast
5:52 AM55.9 °F51.1 °F84 %30.21 in10.0 miNNW (330°)3.5 mphScattered Clouds
6:52 AM55.9 °F51.1 °F84 %30.22 in10.0 miNNW (340°)4.6 mphClear
7:52 AM61.0 °F52.0 °F72 %30.22 in10.0 miNorth (350°)6.9 mphClear
8:52 AM64.9 °F50.0 °F58 %30.22 in10.0 miNorth (10°)9.2 mphClear
9:52 AM66.0 °F48.9 °F54 %30.24 in10.0 miVariable5.8 mphClear
10:52 AM69.1 °F48.0 °F47 %30.24 in10.0 miNorth (10°)9.2 mphMostly Cloudy
11:52 AM68.0 °F48.0 °F49 %30.24 in10.0 miNE (40°)5.8 mphMostly Cloudy
12:52 PM70.0 °F48.9 °F47 %30.22 in10.0 miNE (50°)8.1 mphMostly Cloudy
1:52 PM69.1 °F50.0 °F51 %30.22 in10.0 miNE (50°)8.1 mphMostly Cloudy
2:52 PM72.0 °F50.0 °F46 %30.20 in10.0 miVariable5.8 mphPartly Cloudy
3:52 PM69.1 °F48.9 °F49 %30.20 in10.0 miEast (100°)4.6 mphMostly Cloudy
4:52 PM70.0 °F48.9 °F47 %30.18 in10.0 miEast (90°)3.5 mphClear
5:52 PM69.1 °F50.0 °F51 %30.18 in10.0 miENE (70°)8.1 mphClear
6:52 PM66.9 °F50.0 °F54 %30.17 in10.0 miSE (130°)4.6 mphClear
7:52 PM64.0 °F51.1 °F63 %30.17 in10.0 miSE (130°)5.8 mphClear
8:52 PM63.0 °F52.0 °F67 %30.18 in10.0 miSE (130°)3.5 mphClear
9:52 PM60.1 °F52.0 °F75 %30.18 in10.0 miCalmClear
10:52 PM59.0 °F51.1 °F75 %30.19 in10.0 miCalmClear
11:52 PM57.9 °F52.0 °F81 %30.19 in10.0 miCalmClear
Hourly data recorded from KPWK, located miles away from Chicago, Illinois







STORIES FROM OUR PARTNERS